{"data":{"norad_id":64599,"intl_designator":"2025-137F","name":"STARLINK-34294","alt_names":[],"object_type":"PAYLOAD","status":"ACTIVE","operator":null,"country":"US","launch_date":"2025-06-25","launch_site_code":"AFETR","launch_vehicle":null,"mission":null,"orbit_class":"UNKNOWN","rcs_meters":null,"size_class":null,"mass_kg":null,"dimensions":null,"purposes":["comms"],"wikipedia_slug":null,"has_3d_model":false,"image_url":null,"decayed_at":null,"tle_current":{"epoch":"2026-09-20T09:14:07.887264Z","epoch_age_seconds":141613,"freshness":"FRESH","line1":"1 64599U 25137F   26263.38481351  .00009010  00000+0  27743-3 0  9998","line2":"2 64599  53.1562 148.0593 0000334  98.3390 261.7650 15.34404825 70582","mean_motion":15.34404825,"eccentricity":3.34e-5,"inclination_deg":53.1562,"raan_deg":148.0593,"arg_perigee_deg":98.339,"mean_anomaly_deg":261.765,"bstar":0.00027743,"rev_number":7058,"period_min":93.847462973143,"perigee_km":462.46041574283,"apogee_km":462.9173829129,"semimajor_km":6840.8258993279,"source":"CELESTRAK","updated_at":"2026-09-21T09:00:35.364732Z"}}}